Regional Weather Roundup
Issued by NWS

Home | Current Version | Previous Version | Text Only | Print | Product List | Glossary On
Versions: 1 2 3 4 5 6 7 8 9 10 11 12 13 14 15 16 17 18 19 20 21 22 23 24 25 26 27 28 29 30 31 32 33 34 35 36 37 38 39 40 41 42 43 44 45 46 47 48 49 50
000
ASUS45 KBOI 240110
RWRID

IDAHO REGIONAL WEATHER ROUNDUP
NATIONAL WEATHER SERVICE BOISE ID
700 PM MDT FRI JUN 23 2017

NOTE: "FAIR" INDICATES FEW OR NO CLOUDS BELOW 12000 FEET
WITH NO SIGNIFICANT WEATHER AND/OR OBSTRUCTIONS TO VISIBILITY

IDZ012-014-240200-
SOUTHWEST IDAHO


CITY           SKY/WX    TMP DP  RH WIND       PRES   REMARKS
BOISE          SUNNY     83  27  13 NW14      30.10F
CALDWELL       SUNNY     82  38  20 NW3       30.10F
MOUNTAIN HOME  SUNNY     84  23  10 NW16      30.09F
$$

IDZ016-017-240200-
SOUTHCENTRAL IDAHO


CITY           SKY/WX    TMP DP  RH WIND       PRES   REMARKS
BURLEY         FAIR      77  31  18 W9        30.14F
JEROME         SUNNY     79  34  19 W10       30.15F
TWIN FALLS     SUNNY     78  34  20 NW9       30.16S
$$

IDZ019>023-240200-
SOUTHEAST IDAHO


CITY           SKY/WX    TMP DP  RH WIND       PRES   REMARKS
IDAHO FALLS    SUNNY     77  31  18 VRB3      30.19F
POCATELLO      SUNNY     77  31  18 E6        30.18S
REXBURG        SUNNY     74  31  20 VRB3      30.19S
$$

IDZ006-010-011-018-031-032-240200-
CENTRAL IDAHO MOUNTAINS


CITY           SKY/WX    TMP DP  RH WIND       PRES   REMARKS
MCCALL         SUNNY     73  30  20 W12       30.21F
HAILEY         SUNNY     75  39  27 S10       30.20S
STANLEY          N/A     74  22  14 VRB5      30.26S
SALMON         SUNNY     77  36  22 N5        30.13F
CHALLIS        SUNNY     77  35  21 NE8       30.16S
$$

IDZ002-004-006-007-026-240200-
NORTHERN IDAHO


CITY           SKY/WX    TMP DP  RH WIND       PRES   REMARKS
LEWISTON       SUNNY     84  31  14 MISG      30.13F
LOWELL           N/A     74  39  28 CALM      30.12S
COEUR D`ALENE  FAIR      77  40  26 SW3       30.18F
MULLAN PASS    SUNNY     63  27  25 VRB3      30.31F
$$



USA.gov is the U.S. government's official web portal to all federal, state and local government web resources and services.